Location: ?????
(32.7281°N, 34.9563°E)
Time: 18:49:01
(UTC+00:00)

Cosmos 1825 - Pass Details

Date: 29 October 2020
Orbit: 501 x 508 km, 82.5° (Epoch: 30 November)

Event Time Altitude Azimuth Distance (km) Brightness Sun altitude
Rises 15:39:03 0° 16° (NNE) 2,613 5.5 -10.5°
Reaches altitude 10° 15:42:01 10° 42° (NE) 1,721 4.4 -11.1°
Enters shadow 15:42:02 10° 42° (NE) 1,718 4.4 -11.1°
